Tracking 30417 objects as of 17-May-2025
HD Live streaming from Space Station
objects crossing your sky now

BEIDOU 3M8

Track BEIDOU 3M8 now!
BEIDOU 3M8 is classified as:


NORAD ID: 43246
Int'l Code: 2018-029B
Perigee: 21,523.4 km
Apogee: 21,547.4 km
Inclination: 54.5 °
Period: 773.2 minutes
Semi major axis: 27906 km
RCS: Unknown
Launch date: March 29, 2018
Source: People's Republic of China (PRC)
Launch site: Xichang Space Center, China (XSC)
Your satellite tracking list
Your tracking list is empty




NASA's NSSDC Master Catalog

Two Line Element Set (TLE):
1 43246U 18029B   25136.07142202 -.00000051  00000-0  00000-0 0  9991
2 43246  54.5482 313.8290 0004305  28.6353 331.3802  1.86229171 48485
Source of the keplerian elements: AFSPC